Regional Weather Roundup
Issued by NWS

Home | Current Version | Previous Version | Text Only | Print | Product List | Glossary On
Versions: 1 2 3 4 5 6 7 8 9 10 11 12 13 14 15 16 17 18 19 20 21 22 23 24 25 26 27 28
000
ASUS46 KPQR 201110
RWROR

OREGON REGIONAL WEATHER ROUNDUP
NATIONAL WEATHER SERVICE PORTLAND OR
400 AM PDT SUN APR 20 2014

NOTE: "FAIR" INDICATES FEW OR NO CLOUDS BELOW 12,000 FEET WITH
NO SIGNIFICANT WEATHER AND/OR OBSTRUCTIONS TO VISIBILITY.

ORZ001>013-201200-
NORTHWEST OREGON


CITY           SKY/WX    TMP DP  RH WIND       PRES   REMARKS
ASTORIA        CLOUDY    40  39  97 SE5       30.26R FOG
NEWPORT        CLOUDY    43  43 100 E5          N/A
PORTLAND       MOCLDY    48  42  80 CALM      30.30R
VANCOUVER WA   CLOUDY    43  39  86 CALM      30.29R
SCAPPOOSE      PTCLDY    39  38  96 CALM      30.29R FOG
HILLSBORO      CLOUDY    39  38  96 N3        30.28S
AURORA         MOCLDY    40  39  97 CALM      30.30R
MCMINNVILLE    CLEAR     40  39  97 CALM      30.29S
SALEM          CLEAR     40  38  93 CALM      30.28S
CORVALLIS      CLEAR     37  37 100 CALM      30.30S
EUGENE         PTCLDY    39  38  96 S5        30.29F
$$

ORZ021-028-201200-
SOUTHWEST OREGON


CITY           SKY/WX    TMP DP  RH WIND       PRES   REMARKS
NORTH BEND     CLOUDY    45  45 100 CALM      30.29S
BROOKINGS      MOSUNNY   43  42  96 SE3       30.26F
ROSEBURG       PTCLDY    41  37  86 CALM      30.29S
SEXTON SUMMIT  PTCLDY    37  33  85 SE9       30.22F WCI  30
MEDFORD        PTCLDY    42  38  85 CALM      30.28S
$$

ORZ009-041-201200-
COLUMBIA GORGE


CITY           SKY/WX    TMP DP  RH WIND       PRES   REMARKS
TROUTDALE      CLOUDY    44  41  89 E3        30.28S
THE DALLES     CLEAR     47  38  71 SW3       30.27R
$$

ORZ029>031-042>050-061>064-201200-
EASTERN OREGON


CITY           SKY/WX    TMP DP  RH WIND       PRES   REMARKS
REDMOND        CLEAR     28  24  85 S6        30.25R WCI  22
BEND           MOSUNNY   28  27  93 CALM      30.25S
KLAMATH FALLS  PTCLDY    28  25  88 CALM      30.25R
LAKEVIEW       MOCLDY    25  19  80 NW5       30.25S WCI  19
HERMISTON      CLEAR     42  35  76 S7        30.25R
PENDLETON      CLEAR     41  33  73 S9        30.25R
JOHN DAY       SUNNY     39  30  70 CALM      30.24S
MEACHAM        MOCLDY    32  30  92 SW3       30.22S
LA GRANDE      CLEAR     34  21  60 S3        30.24R
BAKER CITY     CLEAR     32  28  85 W7        30.24R WCI  26
BURNS          PTCLDY    28  25  88 SW7       30.24R WCI  21
ROME             N/A     40  23  50 E5        30.20R
ONTARIO        CLEAR     46  31  55 NW14      30.21R
$$



USA.gov is the U.S. government's official web portal to all federal, state and local government web resources and services.